CW2313 Weather Reports


Display with metric or nautical units.
time (UTC)temp
F
wind
direction
speed
MPH
gust
MPH
rain 1hr
in
rain 24hr
in
rain mn
in
humidity
%
barometer
mb
20260506110026 48 229 0.0 0.0 0.00 0.00 0.00 73 1017.9
20260506104520 49 229 0.0 0.0 0.00 0.00 0.00 71 1017.9
20260506103008 49 229 0.0 0.0 0.00 0.00 0.00 69 1017.8
20260506101549 49 229 0.0 0.0 0.00 0.00 0.00 67 1017.7
20260506100045 48 42 0.0 0.0 0.00 0.00 0.00 68 1017.7
20260506094532 48 42 0.0 0.0 0.00 0.00 0.00 68 1017.7
20260506093023 47 42 0.0 0.0 0.00 0.00 0.00 69 1017.8
20260506091504 48 42 0.0 0.0 0.00 0.00 0.00 70 1017.8
20260506090003 48 42 0.0 0.0 0.00 0.00 0.00 71 1017.7
20260506084545 48 42 0.0 0.0 0.00 0.00 0.00 71 1017.7
20260506083047 48 42 0.0 0.0 0.00 0.00 0.00 70 1017.8
20260506081525 48 42 0.0 0.0 0.00 0.00 0.00 70 1017.8
20260506073006 49 42 0.0 0.0 0.00 0.00 0.00 71 1017.7
20260506071631 48 42 0.0 0.0 0.00 0.00 0.00 72 1017.7
20260506061526 48 42 0.0 0.0 0.00 0.00 0.00 67 1017.4
20260506044535 48 42 0.0 0.0 0.00 0.00 0.00 74 1017.1
20260506043016 48 42 0.0 0.0 0.00 0.00 0.00 74 1017.0
20260506041510 49 41 0.0 0.0 0.00 0.00 0.00 72 1016.9
20260506040053 49 42 0.0 0.0 0.00 0.00 0.00 71 1016.9
20260506034557 50 42 0.0 0.0 0.00 0.00 0.00 68 1016.7
20260506033034 52 42 0.0 0.0 0.00 0.00 0.00 66 1016.5
20260506031533 54 42 0.0 0.0 0.00 0.00 0.00 62 1016.7
20260506030018 55 42 0.0 0.0 0.00 0.00 0.00 60 1016.7
20260506024526 56 215 0.0 0.0 0.00 0.00 0.00 59 1016.5
20260506023056 57 213 0.0 0.0 0.00 0.00 0.00 57 1016.5
20260506021601 57 320 0.0 0.0 0.00 0.00 0.00 56 1016.5
20260506020039 57 73 0.0 5.0 0.00 0.00 0.00 56 1016.4
20260506014539 58 39 0.0 3.0 0.00 0.00 0.00 56 1016.3
20260506013024 58 321 0.0 0.0 0.00 0.00 0.00 59 1016.3
20260506011526 59 28 0.0 1.0 0.00 0.00 0.00 57 1016.3
20260506010007 59 185 0.0 2.0 0.00 0.00 0.00 54 1016.1
20260506004604 60 354 0.0 0.0 0.00 0.00 0.00 52 1016.1
20260506003046 60 172 0.0 0.0 0.00 0.00 0.00 54 1016.1
20260506001546 61 84 0.0 0.0 0.00 0.00 0.00 52 1016.0
20260506000028 61 10 0.0 0.0 0.00 0.00 0.00 51 1016.2
20260505234529 62 341 0.0 0.0 0.00 0.00 0.00 55 1016.2
20260505233009 62 293 0.0 0.0 0.00 0.00 0.00 55 1016.2
20260505231508 62 337 0.0 0.0 0.00 0.00 0.00 57 1016.3
20260505230050 62 144 0.0 0.0 0.00 0.00 0.00 57 1016.4
20260505224548 62 102 0.0 0.0 0.00 0.00 0.00 57 1016.4
20260505223029 61 194 0.0 1.0 0.00 0.00 0.00 58 1016.4
20260505221529 61 50 0.0 0.0 0.00 0.00 0.00 61 1016.5
20260505220017 61 360 0.0 0.0 0.00 0.00 0.00 61 1016.5
20260505214516 61 66 0.0 1.0 0.00 0.00 0.00 61 1016.6
20260505213019 60 37 0.0 1.0 0.00 0.00 0.00 60 1016.5
20260505211532 60 127 0.0 0.0 0.00 0.00 0.00 61 1016.5
20260505210014 60 204 0.0 0.0 0.00 0.00 0.00 58 1016.5
20260505204514 60 97 0.0 0.0 0.00 0.00 0.00 58 1016.6
20260505203014 61 54 0.0 0.0 0.00 0.00 0.00 59 1016.5
20260505201512 60 258 0.0 0.0 0.00 0.00 0.00 62 1016.4
20260505200055 60 136 0.0 0.0 0.00 0.00 0.00 61 1016.5
20260505194552 59 187 0.0 0.0 0.00 0.00 0.00 66 1016.5
20260505193034 59 342 0.0 2.0 0.00 0.00 0.00 69 1016.5
20260505191542 59 187 0.0 0.0 0.00 0.00 0.00 70 1016.5
20260505190016 59 256 0.0 0.0 0.00 0.00 0.00 71 1016.5
20260505184525 58 233 0.0 0.0 0.00 0.00 0.00 73 1016.4
20260505183104 58 4 0.0 0.0 0.00 0.00 0.00 73 1016.3
20260505181559 59 227 0.0 0.0 0.00 0.00 0.00 69 1016.3
20260505180045 59 12 0.0 0.0 0.00 0.00 0.00 69 1016.2
20260505174538 59 316 0.0 0.0 0.00 0.00 0.00 67 1016.1
20260505173020 58 12 0.0 0.0 0.00 0.00 0.00 65 1016.1
20260505171518 58 197 0.0 0.0 0.00 0.00 0.00 68 1016.0
20260505170057 58 230 0.0 0.0 0.00 0.00 0.00 68 1015.8
20260505164556 57 275 0.0 0.0 0.00 0.00 0.00 70 1015.7
20260505163037 57 216 0.0 0.0 0.00 0.00 0.00 70 1015.5
20260505161533 56 209 0.0 0.0 0.00 0.00 0.00 71 1012.3
20260505153052 55 204 0.0 0.0 0.00 0.00 0.00 74 1015.4
20260505151546 54 202 0.0 0.0 0.00 0.00 0.00 75 1015.3
20260505124553 47 70 0.0 0.0 0.00 0.00 0.00 76 1014.3
20260505123033 47 71 0.0 0.0 0.00 0.00 0.00 74 1014.3
20260505121536 46 70 0.0 0.0 0.00 0.00 0.00 75 1014.3
20260505120016 46 70 0.0 0.0 0.00 0.00 0.00 74 1014.2
20260505114512 46 70 0.0 0.0 0.00 0.00 0.00 74 1014.1
20260505113103 46 70 0.0 0.0 0.00 0.00 0.00 74 1014.2
20260505111554 47 70 0.0 0.0 0.00 0.00 0.00 72 1014.1